WD6AWP Weather Reports


Display with metric or nautical units.
time (UTC)temp
F
wind
direction
speed
MPH
gust
MPH
rain 1hr
in
rain 24hr
in
rain mn
in
humidity
%
barometer
mb
20260509034533 62 277 6.0 12.0 0.00 0.00 0.00 90 1013.9
20260509033037 62 273 7.0 12.0 0.00 0.00 0.00 90 1013.8
20260509031531 62 284 7.0 13.0 0.00 0.00 0.00 89 1013.7
20260509030031 62 246 5.0 13.0 0.00 0.00 0.00 89 1013.5
20260509024527 63 267 7.0 14.0 0.00 0.00 0.00 88 1013.3
20260509023027 63 255 7.0 14.0 0.00 0.00 0.00 88 1013.2
20260509021525 64 245 9.0 14.0 0.00 0.00 0.00 86 1013.1
20260509020024 65 268 7.0 15.0 0.00 0.00 0.00 86 1013.1
20260509014527 65 290 5.0 14.0 0.00 0.00 0.00 85 1013.1
20260509013022 66 286 7.0 13.0 0.00 0.00 0.00 83 1013.1
20260509011521 67 226 4.0 14.0 0.00 0.00 0.00 82 1013.1
20260509010029 68 254 3.0 13.0 0.00 0.00 0.00 80 1013.1
20260509004522 68 267 5.0 12.0 0.00 0.00 0.00 79 1013.2
20260509003017 69 287 7.0 12.0 0.00 0.00 0.00 77 1013.1
20260509001516 70 253 5.0 11.0 0.00 0.00 0.00 77 1013.2
20260509000015 70 224 5.0 11.0 0.00 0.00 0.00 77 1013.2
20260508234513 70 261 5.0 11.0 0.00 0.00 0.00 77 1013.3
20260508233012 70 236 4.0 12.0 0.00 0.00 0.00 76 1013.4
20260508231512 70 243 4.0 10.0 0.00 0.00 0.00 76 1013.5
20260508230010 70 252 4.0 14.0 0.00 0.00 0.00 76 1013.6
20260508224518 70 229 6.0 12.0 0.00 0.00 0.00 75 1013.9
20260508223005 70 267 5.0 13.0 0.00 0.00 0.00 76 1014.1
20260508221506 70 235 7.0 14.0 0.00 0.00 0.00 75 1014.2
20260508220003 71 233 5.0 11.0 0.00 0.00 0.00 74 1014.4
20260508214506 71 243 5.0 13.0 0.00 0.00 0.00 74 1014.4
20260508213001 71 229 3.0 10.0 0.00 0.00 0.00 74 1014.6
20260508211600 71 219 4.0 9.0 0.00 0.00 0.00 74 1014.6
20260508210057 71 225 4.0 10.0 0.00 0.00 0.00 76 1014.8
20260508204556 71 236 4.0 12.0 0.00 0.00 0.00 75 1014.8
20260508203053 71 260 6.0 11.0 0.00 0.00 0.00 75 1015.1
20260508201551 70 228 1.0 10.0 0.00 0.00 0.00 77 1015.3
20260508200049 70 209 3.0 8.0 0.00 0.00 0.00 77 1015.5
20260508194600 68 261 3.0 8.0 0.00 0.00 0.00 80 1015.6
20260508193047 68 234 4.0 10.0 0.00 0.00 0.00 80 1015.7
20260508191548 67 271 3.0 9.0 0.00 0.00 0.00 81 1015.8
20260508190100 67 265 1.0 9.0 0.00 0.00 0.00 82 1016.0
20260508184541 67 240 4.0 8.0 0.00 0.00 0.00 83 1016.1
20260508183037 66 222 3.0 8.0 0.00 0.00 0.00 84 1016.2
20260508181542 66 223 2.0 6.0 0.00 0.00 0.00 84 1016.1
20260508180035 66 229 0.0 6.0 0.00 0.00 0.00 85 1016.3
20260508174537 65 231 1.0 7.0 0.00 0.00 0.00 85 1016.4
20260508173028 65 203 2.0 7.0 0.00 0.00 0.00 85 1016.3
20260508171531 64 180 3.0 7.0 0.00 0.00 0.00 85 1016.3
20260508170027 64 167 0.0 0.0 0.00 0.00 0.00 86 1016.3
20260508164526 64 148 0.0 5.0 0.00 0.00 0.00 86 1016.4
20260508163023 64 165 0.0 0.0 0.00 0.00 0.00 86 1016.3
20260508161539 63 171 0.0 0.0 0.00 0.00 0.00 87 1016.3
20260508160021 63 130 0.0 7.0 0.00 0.00 0.00 88 1016.2
20260508154522 63 175 2.0 6.0 0.00 0.00 0.00 88 1016.2
20260508153034 62 165 0.0 3.0 0.00 0.00 0.00 88 1016.3
20260508151517 62 188 0.0 1.0 0.00 0.00 0.00 88 1016.4
20260508150016 62 146 0.0 2.0 0.00 0.00 0.00 89 1016.4
20260508144516 62 171 0.0 4.0 0.00 0.00 0.00 89 1016.3
20260508143014 62 163 2.0 6.0 0.00 0.00 0.00 89 1016.4
20260508141513 62 159 0.0 6.0 0.00 0.00 0.00 89 1016.2
20260508140012 62 132 2.0 7.0 0.00 0.00 0.00 89 1016.1
20260508134512 62 174 2.0 7.0 0.00 0.00 0.00 89 1016.1
20260508133011 62 163 0.0 7.0 0.00 0.00 0.00 89 1016.1
20260508131511 62 144 2.0 7.0 0.00 0.00 0.00 89 1015.8
20260508130011 61 178 1.0 8.0 0.00 0.00 0.00 89 1015.8
20260508124510 62 145 1.0 4.0 0.00 0.00 0.00 90 1015.6
20260508123014 62 176 3.0 9.0 0.00 0.00 0.00 90 1015.6
20260508121506 62 123 0.0 7.0 0.00 0.00 0.00 90 1015.5
20260508120006 62 156 3.0 7.0 0.00 0.00 0.00 90 1015.4
20260508114504 62 171 1.0 7.0 0.00 0.00 0.00 90 1015.4
20260508113006 62 165 2.0 8.0 0.00 0.00 0.00 90 1015.3
20260508111509 62 131 0.0 7.0 0.00 0.00 0.00 90 1015.3
20260508110010 62 102 1.0 7.0 0.00 0.00 0.00 90 1015.3
20260508104502 62 111 1.0 7.0 0.00 0.00 0.00 90 1015.2
20260508103002 62 124 2.0 8.0 0.00 0.00 0.00 90 1015.2
20260508101604 62 155 2.0 8.0 0.00 0.00 0.00 91 1015.4
20260508100130 62 125 1.0 7.0 0.00 0.00 0.00 90 1015.4
20260508094557 62 137 0.0 7.0 0.00 0.00 0.00 90 1015.3
20260508093058 62 96 1.0 8.0 0.00 0.00 0.00 90 1015.4
20260508091610 62 115 0.0 6.0 0.00 0.00 0.00 89 1015.4
20260508090055 62 164 3.0 9.0 0.00 0.00 0.00 89 1015.5
20260508084552 62 113 0.0 4.0 0.00 0.00 0.00 89 1015.7
20260508083051 62 169 0.0 0.0 0.00 0.00 0.00 89 1015.7
20260508081608 62 169 0.0 0.0 0.00 0.00 0.00 89 1015.8
20260508080049 62 171 0.0 0.0 0.00 0.00 0.00 89 1016.0
20260508074548 62 171 0.0 0.0 0.00 0.00 0.00 89 1016.0
20260508073048 62 168 0.0 0.0 0.00 0.00 0.00 90 1016.1
20260508071545 61 200 0.0 0.0 0.00 0.00 0.00 90 1016.1
20260508070043 61 200 0.0 0.0 0.00 0.00 0.00 90 1016.1
20260508064542 61 207 0.0 1.0 0.00 0.00 0.00 91 1016.1
20260508063042 61 225 1.0 5.0 0.00 0.00 0.00 91 1016.1
20260508061542 61 234 0.0 4.0 0.00 0.00 0.00 92 1016.0
20260508060055 61 232 0.0 4.0 0.00 0.00 0.00 91 1016.0
20260508054613 61 247 1.0 5.0 0.00 0.00 0.00 91 1016.1
20260508053049 61 283 2.0 7.0 0.00 0.00 0.00 91 1016.1
20260508051541 61 232 0.0 6.0 0.00 0.00 0.00 91 1016.0
20260508050039 61 260 1.0 8.0 0.00 0.00 0.00 91 1016.0
20260508044538 61 253 2.0 9.0 0.00 0.00 0.00 91 1015.8
20260508043038 62 236 3.0 7.0 0.00 0.00 0.00 91 1015.7
20260508041536 62 232 0.0 5.0 0.00 0.00 0.00 91 1015.5
20260508040036 62 213 2.0 7.0 0.00 0.00 0.00 91 1015.3